Other Public Products
Issued by NWS Grand Forks, ND

Current Version | Previous Version | Text Only | Print | Product List | Glossary On
Versions: 1 2 3 4 5 6 7 8 9 10 11 12 13 14 15 16 17 18 19 20 21 22 23 24 25 26 27 28 29 30 31 32 33 34 35 36 37 38 39 40 41 42 43 44 45 46 47 48 49 50
152
FPUS83 KFGF 120531
OPUFGF
PRAIRIE TO PINES WEATHER ROUNDUP
NATIONAL WEATHER SERVICE EASTERN NORTH DAKOTA/GRAND FORKS ND
1100 PM CST THU FEB 11 2016

 **SATELLITE DATA USED TO AUGMENT SKY COVER AT AUTOMATED STATIONS**
 *****  WEATHER ACROSS EASTERN NORTH DAKOTA  *****

CITY           SKY/WX    TMP DP  RH WIND       PRES   REMARKS
GRAND FORKS    PTCLDY     7   1  76 NW7       30.31S WCI  -5
GRAND FORKS AF PTCLDY     8   2  78 N8        30.31S WCI  -5
GRAND CITY NWS NOT AVBL
BUXTON           N/A      9   6  87 NW8         N/A  WCI  -3
DEVILS LAKE    CLOUDY     7   3  84 NW7       30.30R WCI  -5
FARGO          CLOUDY    13   7  77 N10       30.29S WCI   0
WAHPETON ARPT  MOCLDY    10   5  79 NW7       30.29F WCI   0
$$

 *****  WEATHER ACROSS CENTRAL AND WESTERN NORTH DAKOTA  *****

CITY           SKY/WX    TMP DP  RH WIND       PRES   REMARKS
JAMESTOWN      CLOUDY     6   2  83 NW7       30.27R WCI  -6
BISMARCK       MOCLDY    19  12  74 N3        30.30R
MINOT          CLOUDY    19  10  68 N9        30.30R WCI   8
MINOT AFB      CLOUDY    15   9  79 N9        30.30R WCI   3
GARRISON         N/A     15  12  88 W7        30.28R WCI   5
WILLISTON      CLOUDY    21  16  81 N7        30.33R WCI  12
DICKINSON      CLOUDY    21  17  84 N6        30.23R WCI  13
HETTINGER      CLOUDY    23  20  88 NW3       30.24S FOG
$$

 *****  OTHER OBSERVATIONS NORTHEAST NORTH DAKOTA  *****

CITY           SKY/WX    TMP DP  RH WIND       PRES   REMARKS
WALHALLA       FAIR       5   0  78 NW10      30.34R WCI -10
LANGDON        FAIR      -4  -8  84 N7        30.27S WCI -18
CAVALIER       FAIR       7   0  72 NW14      30.33R WCI -10
GRAFTON        FAIR       5   0  78 NW9       30.34S WCI  -9
CANDO          FAIR       3   0  85 NW9       30.33R WCI -11
FORT TOTTEN      N/A      8   5  87 N2        29.95S
ROLLA          FAIR       3   0  85 N15       30.29R WCI -15
RUGBY          FAIR       7   3  85 N6        30.31R WCI  -3
 ***** THE ABOVE OBSERVATIONS ARE NON NWS ARE NOT QUALITY
        CONTROLLED AND MAY MIS-REPORT RAIN FOR SNOW...
$$

 *****  OTHER OBSERVATIONS SOUTHEAST NORTH DAKOTA *****

CITY           SKY/WX    TMP DP  RH WIND       PRES   REMARKS
COOPERSTOWN    NOT AVBL
VALLEY CITY    MOCLDY     7   5  92 NW8       30.28S WCI  -6
OAKES          MOCLDY    10   9  92 N7        30.28S WCI   0
GWINNER        MOCLDY    12   9  85 NW8       30.28S WCI   1
SHEYENNE NWR     N/A      7   2  82 NW5       29.95S WCI  -2
BUFFALO          N/A     10   5  80 N7          N/A  WCI  -1
WYNDMERE         N/A      7   1  78 NW6         N/A  WCI  -3
 ***** THE ABOVE OBSERVATIONS ARE NON NWS ARE NOT QUALITY
       CONTROLLED AND MAY MIS-REPORT RAIN FOR SNOW...
$$

  *****  WEATHER ACROSS NORTHERN MINNESOTA  *****

CITY           SKY/WX    TMP DP  RH WIND       PRES   REMARKS
FLAG ISLAND    PTCLDY     0  -8  71 NW16      30.19S WCI -21
WARROAD        CLEAR      0  -4  85 W8        30.22S WCI -15
ROSEAU         CLEAR      0  -6  78 W9        30.24S WCI -16
HALLOCK        CLEAR      3  -2  78 NW14      30.31R WCI -15
THF RVR FALLS  CLOUDY     5  -6  61 NW10      30.27S WCI -10
HALSTAD          N/A     10   7  87 N12         N/A  WCI  -5
FOSSTON        MOCLDY     5   0  78 NW12      30.24S WCI -11
BAUDETTE       CLEAR      1  -5  75 W9        30.17S WCI -14
WASKISH        CLEAR      1  -2  85 W6        30.19S WCI -10
CROOKSTON      CLEAR      5   1  85 N7        30.31S WCI  -7
$$
  *****  WEATHER ACROSS CENTRAL AND WEST MINNESOTA  *****

CITY           SKY/WX    TMP DP  RH WIND       PRES   REMARKS
BEMIDJI        CLOUDY     7   2  81 NW13      30.19S WCI  -9
PARK RAPIDS    CLOUDY     7   1  76 W7        30.19S WCI  -5
WADENA         CLOUDY     9   1  72 NW10      30.21S WCI  -6
DETROIT LAKES  FLURRIES  10   9  92 NW10      30.24S WCI  -3
MOORHEAD       CLOUDY    10   7  85 N8        30.30S WCI  -1
FERGUS FALLS   CLOUDY     9   3  78 NW6       30.29S WCI  -1
ELBOW LAKE     MOCLDY    11   6  83 NW9       30.25S FOG     WCI  -2
MORRIS MN      CLOUDY    12   9  85 NW9       30.25R WCI   0
STAPLES        CLOUDY    10   3  72 NW10      30.21S WCI  -3
WHEATON        CLOUDY    12   9  85 NW9       30.30R WCI   0
$$
  *****  WEATHER ELSEWHERE ACROSS MINNESOTA  *****

CITY           SKY/WX    TMP DP  RH WIND       PRES   REMARKS
DULUTH         CLOUDY    10  -2  58 NW12      30.09F WCI  -5
INTRNTL FALLS  CLEAR      2  -6  69 NW10      30.14R WCI -14
ELY            CLOUDY     7   1  78 NW10      30.06S WCI  -8
CLOQUET        CLOUDY    10   0  61 W9        30.12S WCI  -2
BRAINERD       CLOUDY    12   2  64 NW12      30.19R WCI  -2
HIBBING        CLOUDY     7   0  73 W13G20    30.11F WCI  -9
ALEXANDRIA     CLOUDY    12   8  84 NW9       30.21S WCI   0
SAINT CLOUD    CLOUDY    13   9  84 NW8       30.21S WCI   2
MINNEAPOLIS    CLOUDY    14   7  73 W6        30.23F WCI   5
$$

  *****  WEATHER ACROSS SOUTH DAKOTA  *****

CITY           SKY/WX    TMP DP  RH WIND       PRES   REMARKS
SIOUX FALLS    LGT SNOW  11   9  92 N5        30.24R WCI   3
BROOKINGS      CLOUDY    15  13  91 NW5       30.21R WCI   8
WATERTOWN      CLOUDY    17  11  77 N15       30.22R WCI   2
HURON          CLOUDY    19  14  81 N10       30.27R WCI   7
SISSETON         N/A     11   8  88 N10       30.27R WCI  -3
ABERDEEN       PTCLDY    13   9  84 N7        30.28S WCI   3
MITCHELL       CLOUDY    20  17  88 W5        30.27R WCI  13
PIERRE         CLOUDY    27  24  89 NW7       30.24R WCI  19
MOBRIDGE       CLOUDY    21  16  81 N5        30.26R WCI  15
RAPID CITY     CLOUDY    31  28  89 N6        30.24R
$$

  *****  SOME WEATHER IN NEARBY STATES *****

CITY           SKY/WX    TMP DP  RH WIND       PRES   REMARKS
GLASGOW MT     CLOUDY    30  26  85 N5        30.28R
GREAT FALLS MT MOCLDY    33  28  81 E5        30.26S
CHEYENNE WY    PTCLDY    35  24  64 NW5       30.26S
SCOTTSBLUFF NE PTCLDY    32  26  78 NW7       30.23R
OMAHA NE       CLOUDY    25  19  78 NE3       30.22S
DES MOINES IA  FLURRIES  18  13  80 E5        30.24F WCI  11
DAVENPORT IA   CLOUDY    20   7  57 CALM      30.25F
CHICAGO IL     CLOUDY    18   7  62 W5        30.25F WCI  11
EAU CLAIRE WI  CLOUDY    14   3  61 W8        30.19F WCI   3
LA CROSSE WI   CLOUDY    15   1  53 W5        30.24F WCI   8
$$

  *****  SOME NATIONAL WEATHER *****

CITY           SKY/WX    TMP DP  RH WIND       PRES   REMARKS
LA GUARDIA NY  PTCLDY    20   2  45 NW20G31   30.20R WCI   4
RALEIGH NC     PTCLDY    27   6  41 NE7       30.30S WCI  19
ATLANTA GA     PTCLDY    43  23  45 NE3       30.18S
NEW ORLEANS LA PTCLDY    60  55  83 SW12      30.22S
OKLAHOMA CITY  CLEAR     43  32  65 N7        30.18R
ALBUQUERQUE NM CLEAR     49  18  29 N5        30.33R
SALT LAKE CITY CLOUDY    29  27  92 S3        30.40F FOG
LOS ANGELES CA CLEAR     65  42  43 CALM      30.11R
BOISE ID       PTCLDY    38  31  76 S6        30.33R
SEATTLE WA     LGT RAIN  51  48  89 E10       30.09F
$$

*** WEATHER ACROSS MANITOBA...SASKATCHEWAN AND ONTARIO ***
                ***ONTARIO***

CITY           SKY/WX    TMP DP  RH WIND       PRES   REMARKS
GERALDTON      LGT SNOW   1  -4  78 NW14G24   29.89R DRFTSNOWWCI -17
THUNDER BAY    CLEAR      3  -2  78 W7        30.03S WCI  -9
SIOUX LOOKOUT  LGT SNOW   0  -8  71 NW12G18   30.03R DRFTSNOWWCI -18
TORONTO        MOCLDY    12   3  67 SW13      30.15F WCI  -3
BIG TROUT LK   MOCLDY   -26 -33  68 NW9G17    30.10S WCI -47
PICKLE LAKE    NOT AVBL
DRYDEN         CLEAR     -2  -8  78 W9        30.06R WCI -18
KENORA         CLEAR     -2  -9  71 NW12G18   30.13S WCI -20
$$
                *** MANITOBA***

CITY           SKY/WX    TMP DP  RH WIND       PRES   REMARKS
BRANDON        PTCLDY    -6  -9  84 NW10      30.34R WCI -23
DAUPHIN        CLEAR     -9 -13  84 W9        30.42R WCI -27
ISLAND LAKE    CLEAR    -20 -26  76 NW9G17    30.29R WCI -40
PILOT MOUND      N/A     -6  -9  84 NW3         N/A
THE PAS        CLEAR    -13 -20  70 N8        30.51R WCI -30
THOMPSON       CLEAR    -22 -29  69 NW10      30.43R WCI -44
WINNIPEG       CLEAR     -6 -15  65 NW10      30.33R WCI -23
LYNN LAKE      CLEAR    -24 -31  69 NW9       30.50R WCI -45
CHURCHILL      CRYSTALS -24 -29  76 N26       30.32  VSB 5/8 WCI -57
GILLAM         CLEAR    -26 -35  62 NW15      30.33R WCI -52
$$
                ***SASKATCHEWAN***

CITY           SKY/WX    TMP DP  RH WIND       PRES   REMARKS
ESTEVAN        PTCLDY    10   5  79 N9        30.34R WCI  -2
KINDERSLEY     CLOUDY    12   9  85 E14       30.37R WCI  -3
LLOYDMINSTER   PTCLDY     3   0  85 E9        30.42R WCI -11
PRINCE ALBERT  CLEAR     -4  -9  77 CALM      30.51R
REGINA         CLOUDY     9   3  78 N8        30.40R WCI  -4
YORKTON        CLEAR     -6 -13  71 NW10      30.40R WC1F1C2F2C3F3C4F4C5F5C6F6C7F7C8F8C9F9CaFaCbFbCcFcCdFdCe!



USA.gov is the U.S. government's official web portal to all federal, state and local government web resources and services.